Kezdőlap
METAR-TAF:

METAR-TAF

Repülőterek :

Shenandoah Municipal Airport

Shenandoah, Iowa, Amerikai Egyesült Államok

földrajzi szélesség: 40-45N, földrajzi hosszúság: 095-25W, magasság: 296 m

Jelenlegi meteorológiai megfigyelések

A jelentés 20 perccel ezelõtt készült, 16:35 UTC
Déli szél 9 kt
Hőmérséklet 6°C
Páratartalom 49%
Légköri nyomás 1021 hPa
Látótávolság: 16.1 km
Derült ég

METAR: KSDA 081635Z AUTO 19009KT 10SM CLR 06/M04 A3016 RMK AO2

Idő: 10:55 (16:55 UTC)


TAF: hiányzik

Meteorológiai megfigyelések és előrejelzések több, mint 4000 repülőtéren (METAR és TAF jelentéseket).

A térképen piros és sárga pontok jelzik az elérhető meteorológiai állomásokat.

Mozgassa az egeret a pont fölött, hogy megjelenjen az állomás neve.

Azután kattintson az időjárási megfigyelések és előrejelzések megtekintéséhez.

A térkép megváltoztatása: kattintson a fekete keresztel jelölt zöld gombra ráközelítéshez, a vonallal jelölt zöld gombra távolításhoz, vagy a zöld nyilakra a szomszédos térképek eléréséhez.


METAR-TAF: